Home > Time Zones > World Clock > Weather > Macau > Macau > Past weeks

Flag for Macau Weather past 2 weeks in Macau, Macau

Now
79 °F

Scattered clouds.


Feels Like: 82 °F
Forecast: 72 / 77 °F
Wind: 10 mph from South

Location: Taipa


UV Index: 7 (High)

Visibility: N/A


Pressure: 29.80 "Hg

Humidity: 89%

Dew point: 75 °F

Location of MacauLocation

Historic Weather in Macau

°F

Macau temperature yesterday

Maximum temperature yesterday: 77 °F (at 11:00 AM)
Minimum temperature yesterday: 73 °F (at 12:00 AM)
Average temperature yesterday: 75 °F

Past Weeks' High & Low Weather Summary

 TemperatureHumidityPressure
High81 °F (Apr 13, 2:00 PM)100% (Apr 6, 5:30 PM)30.07 "Hg (Apr 6, 5:30 PM)
Low64 °F (Apr 6, 5:30 PM)69% (Apr 5, 4:30 PM)29.80 "Hg (Apr 12, 5:00 PM)
Average73 °F88%29.92 "Hg
* Reported Apr 5 4:00 PM — Apr 20 4:30 PM, Macau, Weather by CustomWeather, © 2014

Note: Actual official high and low records may vary slightly from our data, if they occured in-between our weather recording intervals... More about our weather records

Advertising

Historic Weather Conditions — Data for Previous 24 hours

 ConditionsComfort  
Time TempWeatherWind HumidityBarometerVisibility
4:30 PM
Apr 20
81 °FScattered clouds.9 mph84%29.80 "HgN/A
4:00 PM81 °FScattered clouds.10 mph79%29.80 "HgN/A
3:30 PM81 °FScattered clouds.10 mph79%29.80 "HgN/A
3:00 PM81 °FScattered clouds.9 mph79%29.80 "HgN/A
2:30 PM81 °FScattered clouds.9 mph79%29.83 "HgN/A
2:00 PM81 °FScattered clouds.9 mph79%29.83 "HgN/A
1:30 PM79 °FScattered clouds.9 mph89%29.86 "HgN/A
1:00 PM79 °FScattered clouds.8 mph89%29.86 "HgN/A
12:30 PM79 °FScattered clouds.9 mph89%29.89 "Hg6 mi
12:00 PM79 °FScattered clouds.8 mph84%29.89 "Hg6 mi
11:30 AM79 °FScattered clouds.7 mph84%29.89 "Hg5 mi
11:00 AM79 °FScattered clouds.5 mph84%29.89 "Hg5 mi
10:30 AM77 °FScattered clouds.5 mph89%29.89 "Hg4 mi
10:00 AM75 °FScattered clouds.3 mph94%29.92 "Hg4 mi
9:30 AM75 °FScattered clouds.3 mph94%29.89 "Hg4 mi
9:00 AM75 °FScattered clouds.3 mph94%29.89 "Hg4 mi
8:30 AM75 °FScattered clouds.5 mph94%29.89 "Hg4 mi
8:00 AM75 °FScattered clouds.5 mph94%29.89 "Hg4 mi
7:30 AM75 °FFog.2 mph94%29.86 "Hg3 mi
7:00 AM73 °FFog.2 mph100%29.86 "Hg2 mi
6:30 AM73 °FFog.2 mph100%29.86 "Hg2 mi
6:00 AM73 °FPassing clouds.2 mph100%29.86 "Hg4 mi
5:00 AM73 °FPassing clouds.2 mph94%29.83 "HgN/A
4:30 AM73 °FPassing clouds.2 mph94%29.83 "HgN/A
4:00 AM73 °FPassing clouds.3 mph94%29.83 "HgN/A
3:30 AM73 °FPassing clouds.2 mph94%29.83 "HgN/A
3:00 AM73 °FPassing clouds.3 mph94%29.83 "HgN/A
2:30 AM73 °FPassing clouds.No wind100%29.83 "HgN/A
2:00 AM73 °FPassing clouds.No wind100%29.83 "HgN/A
1:30 AM73 °FPassing clouds.No wind100%29.83 "HgN/A
1:00 AM73 °FPassing clouds.2 mph100%29.83 "HgN/A
12:30 AM73 °FPassing clouds.2 mph100%29.86 "HgN/A
12:00 AM75 °FPassing clouds.2 mph94%29.86 "HgN/A
11:30 PM
Apr 19
75 °FPassing clouds.3 mph94%29.86 "HgN/A
11:00 PM75 °FPassing clouds.5 mph94%29.86 "HgN/A
10:30 PM75 °FPassing clouds.5 mph94%29.86 "HgN/A
10:00 PM75 °FPassing clouds.3 mph94%29.86 "HgN/A
9:30 PM75 °FPassing clouds.7 mph94%29.86 "HgN/A
9:00 PM75 °FPassing clouds.5 mph94%29.86 "HgN/A
8:30 PM75 °FPassing clouds.7 mph94%29.86 "HgN/A
8:00 PM75 °FPassing clouds.7 mph94%29.86 "HgN/A
7:30 PM75 °FPassing clouds.8 mph94%29.83 "HgN/A
7:00 PM75 °FPassing clouds.5 mph94%29.83 "HgN/A
6:30 PM75 °FScattered clouds.6 mph94%29.83 "HgN/A
6:00 PM77 °FPassing clouds.7 mph89%29.83 "HgN/A
5:30 PM77 °FPassing clouds.8 mph89%29.83 "HgN/A
5:00 PM77 °FPassing clouds.9 mph89%29.83 "HgN/A
Weather by CustomWeather, © 2014

See weather overview